{"data":{"norad_id":60935,"epoch":"2026-05-24T22:28:02.800128Z","epoch_age_seconds":77192,"freshness":"FRESH","line1":"1 60935U 24155M   26144.93614352 -.00000225  00000+0  29950-5 0  9999","line2":"2 60935  53.1591 325.6817 0000781  95.2162 264.8945 15.69714239100378","mean_motion":15.69714239,"eccentricity":7.81e-5,"inclination_deg":53.1591,"raan_deg":325.6817,"arg_perigee_deg":95.2162,"mean_anomaly_deg":264.8945,"bstar":2.995e-6,"rev_number":10037,"period_min":91.73644248251,"perigee_km":359.18839384016,"apogee_km":360.24084626321,"semimajor_km":6737.8516200517,"source":"CELESTRAK","updated_at":"2026-05-25T13:38:19.319466Z"}}